This is the latest recevied weather packets stored in our database for station/object K2CAT. If no packets are shown the sender has not sent any weather packets the latest 10 day(s).
| Time | Temp. | Humidity | Pressure | Rain* | Wind** | Luminosity | Snow |
|---|---|---|---|---|---|---|---|
| 1777673125 | 17.22° C | 39% | 1009.7 hPa | 0 mm | - | 74 W/m² | - |
| 1777672821 | 17.22° C | 39% | 1009.7 hPa | 0 mm | - | 72 W/m² | - |
| 1777672517 | 17.22° C | 39% | 1009.6 hPa | 0 mm | - | 77 W/m² | - |
| 1777672213 | 17.22° C | 40% | 1009.5 hPa | 0 mm | - | 79 W/m² | - |
| 1777671908 | 17.22° C | 42% | 1009.4 hPa | 0 mm | - | 76 W/m² | - |
| 1777671604 | 17.22° C | 38% | 1009.3 hPa | 0 mm | - | 81 W/m² | - |
| 1777671301 | 17.22° C | 39% | 1009.3 hPa | 0 mm | - | 88 W/m² | - |
| 1777671002 | 17.78° C | 40% | 1009.3 hPa | 0 mm | - | 94 W/m² | - |
| 1777670699 | 17.78° C | 38% | 1009.3 hPa | 0 mm | - | 101 W/m² | - |
| 1777670396 | 17.78° C | 38% | 1009.3 hPa | 0 mm | - | 143 W/m² | - |
| 1777670093 | 17.78° C | 37% | 1009.4 hPa | 0 mm | - | 122 W/m² | - |
| 1777669790 | 17.22° C | 38% | 1009.3 hPa | 0 mm | - | 88 W/m² | - |
| 1777669487 | 17.78° C | 38% | 1009.2 hPa | 0 mm | - | 92 W/m² | - |
| 1777669183 | 17.78° C | 38% | 1009.2 hPa | 0 mm | - | 156 W/m² | - |
| 1777668880 | 17.78° C | 37% | 1009 hPa | 0 mm | - | 160 W/m² | - |
| 1777668578 | 17.78° C | 37% | 1009.2 hPa | 0 mm | - | 168 W/m² | - |
| 1777668273 | 18.33° C | 35% | 1009.3 hPa | 0 mm | - | 149 W/m² | - |
| 1777667970 | 18.89° C | 35% | 1009.1 hPa | 0 mm | - | 223 W/m² | - |
| 1777667667 | 18.89° C | 38% | 1009.1 hPa | 0 mm | - | 132 W/m² | - |
| 1777667364 | 18.33° C | 36% | 1009.1 hPa | 0 mm | - | 368 W/m² | - |
| 1777667061 | 18.33° C | 36% | 1009.3 hPa | 0 mm | - | 157 W/m² | - |
| 1777666758 | 18.89° C | 36% | 1009.2 hPa | 0 mm | - | 169 W/m² | - |
| 1777666455 | 18.89° C | 37% | 1009.3 hPa | 0 mm | - | 169 W/m² | - |
| 1777666151 | 19.44° C | 35% | 1009.3 hPa | 0 mm | - | 489 W/m² | - |
| 1777665848 | 20° C | 35% | 1009.2 hPa | 0 mm | - | 483 W/m² | - |
* Rain latest hour (hover to see other rain measurements)
** Current wind speed in m/s (hover to see current wind gust speed)